Simultaneous Nadir Overpasses (SNOs) Predictions

Prediction of SNOs between LANDSAT-8 and METOP-B Satellite Orbit:

Table of predicted SNOs for the next 14.0 days since TLE Epoch: 4/2/2016
Index Date (LANDSAT-8) Time (LANDSAT-8) Lat,Lon (LANDSAT-8) SZA (LANDSAT-8 ) Date (METOP-B) Time (METOP-B) Lat,Lon (METOP-B) SZA (METOP-B ) Distance(km) Time Diff (sec)
1 04/03/2016 16:34:56 81.12, -29.26 77.42 04/03/2016 16:34:22 81.12, -29.43 77.38 3.15 34
2 04/03/2016 17:24:22 -81.14, 138.66 102.56 04/03/2016 17:25:01 -81.14, 138.72 102.54 1.13 39
3 04/06/2016 12:09:11 81.12, 37.06 76.36 04/06/2016 12:08:45 81.12, 37.00 76.34 0.99 26
4 04/06/2016 12:58:37 -81.14,-155.00 103.62 04/06/2016 12:59:25 -81.13,-155.18 103.62 3.13 48
5 04/09/2016 07:43:24 81.13, 103.69 75.36 04/09/2016 07:43:06 81.13, 103.79 75.36 1.71 18
6
